Location: *
(43.9900°N, 3.4811°E)
Time: 04:23:26
(UTC+00:00)

Cosmos 2360 - Pass Details

Date: 25 August 2019
Orbit: 846 x 856 km, 70.8° (Epoch: 13 October)

Event Time Altitude Azimuth Distance (km) Brightness Sun altitude
Rises 20:59:50 0° 333° (NNW) 3,419 8.6 -23.4°
Reaches altitude 10° 21:02:17 10° 332° (NNW) 2,481 7.6 -23.7°
Maximum altitude 21:07:59 77° 247° (WSW) 874 4.2 -24.4°
Enters shadow 21:09:12 56° 177° (S) 1,005 4.3 -24.6°
